{"data":{"norad_id":65467,"epoch":"2026-05-24T19:27:49.422816Z","epoch_age_seconds":88402,"freshness":"FRESH","line1":"1 65467U 25195K   26144.81098869  .00014916  00000+0  51453-3 0  9997","line2":"2 65467  53.1580 264.9303 0000890  81.6941 278.4161 15.30212788 41646","mean_motion":15.30212788,"eccentricity":8.9e-5,"inclination_deg":53.158,"raan_deg":264.9303,"arg_perigee_deg":81.6941,"mean_anomaly_deg":278.4161,"bstar":0.00051453,"rev_number":4164,"period_min":94.104559267348,"perigee_km":474.56694208634,"apogee_km":475.78683195823,"semimajor_km":6853.3138870223,"source":"CELESTRAK","updated_at":"2026-05-25T13:38:20.813574Z"}}